Погода в Клеванцове

Россия / Костромская область     57°49′18″N   42°26′53″E
темп.,
°C
ветер,
м/с
пор.,
м/с
влажн.,
%
обл.,
%
осадки,
мм/ч
давл.,
гПа
погр.,
м
12 апреля, пн
пн1200:00+2ююв009849 0.0 103510
03:00+4вюв1198100 0.0 103626
06:00+3вюв24100100 0.0 1037138
09:00+5вюв2598100 0.0 1038212
12:00+11юв367970 0.0 1037652
15:00+12юв4673100 0.0 1036786
18:00+9вюв3986100 0.0 1035425
21:00+6юв41295100 0.0 1035423
13 апреля, вт
вт1300:00+5юв41295100 0.0 1034473
03:00+5юв41197100 0.0 1032383
06:00+5юв31098100 0.0 1032303
09:00+9ююв3787100 0.0 1030279
12:00+14ююв4769100 0.0 1029523
15:00+16ю486182 0.0 1028875
18:00+13ююв387381 0.0 1026171
21:00+9ю3108290 0.0 1027175
14 апреля, ср
ср1400:00+8ю398074 0.0 1027146
03:00+6ю388373 0.0 1026122
06:00+6ю388460 0.0 1026146
09:00+12ю4863100 0.0 1025321
12:00+16ю474895 0.0 1024889
15:00+17ю474665 0.0 10231343
18:00+14ююв3661100 0.0 1021162
21:00+10ююв397199 0.0 1021148
15 апреля, чт
чт1500:00+8ю2373100 0.0 102148
03:00+7ююз227531 0.0 102115
06:00+7ю22755 0.0 102018
09:00+13ю125554 0.0 1020253
12:00+17ююз124265 0.0 1019745
15:00+18з113612 0.0 10191543
18:00+16с014868 0.0 101812
21:00+10ссв4984100 0.0 1019313
16 апреля, пт
пт1600:00+8ссв3888100 0.0 1020299
03:00+6ссв3893100 0.0 1020280
06:00+5ссв389285 0.0 1021361
09:00+8ссв467799 0.0 1022673
12:00+6ссв4780100 0.0 1023605
15:00+10св365741 0.0 10231151
18:00+9ссв58470 0.0 1023818
21:00+5ссв311630 0.0 1026333